DAL1229 SEQM-KMIA

Flight info

Callsign DAL1229
Flight time N/A
Altitude 34000
Route NEGAL3A NEGAL UM674 TBG UL780 ULBAS UG437 ALTIB UM779 ZEUSS VIICE2
Aircraft A320/M-SDE3FGHIRWY/LB1

Departure

Time 2026-05-03 21:15
Airport Mariscal Sucre International Airport (SEQM)

Arrival

Time N/A
Airport Miami International Airport (KMIA)
Time Latitude Longitude Altitude Speed Heading
2026-05-03 20:36 -0.12542 -78.35924 7842 ft 0 kts 266°
2026-05-03 21:05 -0.12541 -78.35911 7835 ft 3 kts 265°
2026-05-03 21:06 -0.12540 -78.35890 7842 ft 3 kts 263°
2026-05-03 21:06 -0.12537 -78.35870 7846 ft 3 kts 257°
2026-05-03 21:06 -0.12531 -78.35851 7829 ft 3 kts 240°
2026-05-03 21:06 -0.12520 -78.35838 7838 ft 3 kts 196°
2026-05-03 21:07 -0.12514 -78.35836 7833 ft 0 kts 178°
2026-05-03 21:09 -0.12519 -78.35836 7835 ft 2 kts 178°
2026-05-03 21:09 -0.12546 -78.35835 7842 ft 6 kts 178°
2026-05-03 21:09 -0.12599 -78.35832 7842 ft 9 kts 176°
2026-05-03 21:09 -0.12669 -78.35826 7843 ft 9 kts 167°
2026-05-03 21:10 -0.12696 -78.35780 7841 ft 9 kts 88°
2026-05-03 21:10 -0.12692 -78.35703 7848 ft 13 kts 88°
2026-05-03 21:10 -0.12694 -78.35626 7859 ft 10 kts 108°
2026-05-03 21:10 -0.12776 -78.35599 7865 ft 17 kts 179°
2026-05-03 21:11 -0.12919 -78.35592 7869 ft 22 kts 178°
2026-05-03 21:11 -0.13066 -78.35586 7876 ft 20 kts 178°
2026-05-03 21:11 -0.13207 -78.35579 7883 ft 22 kts 177°
2026-05-03 21:11 -0.13365 -78.35573 7885 ft 23 kts 178°
2026-05-03 21:12 -0.13518 -78.35568 7888 ft 20 kts 178°
2026-05-03 21:12 -0.13643 -78.35561 7893 ft 17 kts 177°
2026-05-03 21:12 -0.13775 -78.35557 7897 ft 22 kts 178°
2026-05-03 21:12 -0.13941 -78.35550 7900 ft 24 kts 177°
2026-05-03 21:13 -0.14096 -78.35543 7911 ft 20 kts 178°
2026-05-03 21:13 -0.14207 -78.35532 7913 ft 13 kts 163°
2026-05-03 21:13 -0.14255 -78.35466 7915 ft 13 kts 97°
2026-05-03 21:13 -0.14230 -78.35375 7916 ft 15 kts 35°
2026-05-03 21:14 -0.14117 -78.35373 7912 ft 20 kts 358°
2026-05-03 21:14 -0.13821 -78.35385 7897 ft 76 kts 358°
2026-05-03 21:14 -0.13065 -78.35416 7879 ft 140 kts 358°
2026-05-03 21:14 -0.11905 -78.35464 7874 ft 188 kts 358°
2026-05-03 21:15 -0.10607 -78.35527 8548 ft 191 kts 358°
2026-05-03 21:15 -0.09248 -78.35659 9282 ft 196 kts 348°
2026-05-03 21:15 -0.07922 -78.36016 9804 ft 208 kts 343°
2026-05-03 21:15 -0.06472 -78.36495 9937 ft 225 kts 342°
2026-05-03 21:16 -0.04968 -78.37029 10152 ft 239 kts 341°
2026-05-03 21:16 -0.03365 -78.37608 10372 ft 252 kts 342°
2026-05-03 21:16 -0.01640 -78.38203 10477 ft 272 kts 342°
2026-05-03 21:16 0.00214 -78.38815 10730 ft 288 kts 342°
2026-05-03 21:17 0.02153 -78.39453 11119 ft 299 kts 342°
2026-05-03 21:17 0.03515 -78.39901 11176 ft 312 kts 342°
2026-05-03 21:17 0.06371 -78.40830 11319 ft 339 kts 342°
2026-05-03 21:17 0.08674 -78.41569 11483 ft 356 kts 343°
2026-05-03 21:18 0.11085 -78.42334 11674 ft 371 kts 343°
2026-05-03 21:18 0.13580 -78.43149 11858 ft 385 kts 342°
2026-05-03 21:18 0.16156 -78.44048 12057 ft 396 kts 340°
2026-05-03 21:18 0.18740 -78.45059 12504 ft 401 kts 339°
2026-05-03 21:19 0.21319 -78.46162 13006 ft 405 kts 337°
2026-05-03 21:19 0.23906 -78.47304 13447 ft 410 kts 338°
2026-05-03 21:19 0.26553 -78.48440 13810 ft 416 kts 338°
2026-05-03 21:19 0.29231 -78.49556 14233 ft 418 kts 339°
2026-05-03 21:20 0.31934 -78.50662 14618 ft 421 kts 339°
2026-05-03 21:20 0.34654 -78.51768 15083 ft 424 kts 339°
2026-05-03 21:20 0.37398 -78.52884 15597 ft 427 kts 340°
2026-05-03 21:20 0.40160 -78.54012 16025 ft 430 kts 339°
2026-05-03 21:21 0.42941 -78.55153 16413 ft 434 kts 340°
2026-05-03 21:21 0.45738 -78.56307 16790 ft 436 kts 340°
2026-05-03 21:21 0.48557 -78.57430 17199 ft 437 kts 344°
2026-05-03 21:21 0.51495 -78.58191 17568 ft 436 kts 352°
2026-05-03 21:22 0.54503 -78.58600 17900 ft 437 kts 355°
2026-05-03 21:22 0.57525 -78.58986 18265 ft 439 kts 355°
2026-05-03 21:22 0.60568 -78.59377 18528 ft 442 kts 355°
2026-05-03 21:22 0.63626 -78.59773 18832 ft 443 kts 355°
2026-05-03 21:23 0.66688 -78.60175 19122 ft 444 kts 354°
2026-05-03 21:23 0.69758 -78.60579 19411 ft 446 kts 355°
2026-05-03 21:23 0.72846 -78.60982 19689 ft 448 kts 355°
2026-05-03 21:23 0.75939 -78.61383 19920 ft 449 kts 354°
2026-05-03 21:24 0.77998 -78.61651 20098 ft 451 kts 354°
2026-05-03 21:24 0.82131 -78.62191 20446 ft 453 kts 354°
2026-05-03 21:24 0.85264 -78.62599 20712 ft 455 kts 354°
2026-05-03 21:24 0.88407 -78.63008 20967 ft 456 kts 354°
2026-05-03 21:25 0.91560 -78.63419 21160 ft 458 kts 354°
2026-05-03 21:25 0.94725 -78.63831 21401 ft 459 kts 354°
2026-05-03 21:25 0.97897 -78.64243 21642 ft 461 kts 354°
2026-05-03 21:25 1.00047 -78.64523 21802 ft 462 kts 354°
2026-05-03 21:26 1.04274 -78.65074 22100 ft 464 kts 354°
2026-05-03 21:26 1.06438 -78.65357 22206 ft 464 kts 354°
2026-05-03 21:26 1.09647 -78.65776 22416 ft 466 kts 354°
2026-05-03 21:26 1.12866 -78.66195 22621 ft 467 kts 354°
2026-05-03 21:27 1.16050 -78.66608 22809 ft 468 kts 354°
2026-05-03 21:27 1.19287 -78.67028 23002 ft 470 kts 354°
2026-05-03 21:27 1.22530 -78.67450 23149 ft 471 kts 354°
2026-05-03 21:27 1.25782 -78.67875 23333 ft 472 kts 354°
2026-05-03 21:28 1.29082 -78.68308 23507 ft 473 kts 354°
2026-05-03 21:28 1.32301 -78.68731 23652 ft 473 kts 354°
2026-05-03 21:28 1.35569 -78.69155 23769 ft 474 kts 354°
2026-05-03 21:28 1.38839 -78.69564 23911 ft 474 kts 354°
2026-05-03 21:29 1.42119 -78.69967 24043 ft 475 kts 354°
2026-05-03 21:29 1.45406 -78.70367 24170 ft 476 kts 354°
2026-05-03 21:29 1.48699 -78.70768 24278 ft 477 kts 354°
2026-05-03 21:29 1.51998 -78.71173 24391 ft 478 kts 354°
2026-05-03 21:30 1.55300 -78.71579 24517 ft 478 kts 354°
2026-05-03 21:30 1.58606 -78.71983 24638 ft 479 kts 354°
2026-05-03 21:30 1.61919 -78.72390 24748 ft 480 kts 354°
2026-05-03 21:30 1.65236 -78.72799 24860 ft 481 kts 354°
2026-05-03 21:31 1.68559 -78.73212 24972 ft 482 kts 354°
2026-05-03 21:31 1.71888 -78.73624 25080 ft 483 kts 354°
2026-05-03 21:31 1.75222 -78.74035 25203 ft 483 kts 354°
2026-05-03 21:31 1.78554 -78.74445 25365 ft 482 kts 354°
2026-05-03 21:32 1.81888 -78.74855 25519 ft 482 kts 355°
2026-05-03 21:32 1.85216 -78.75253 25709 ft 482 kts 355°
2026-05-03 21:32 1.88549 -78.75640 25866 ft 482 kts 355°
2026-05-03 21:32 1.91876 -78.76021 26025 ft 482 kts 355°
2026-05-03 21:33 1.95203 -78.76398 26189 ft 481 kts 355°
2026-05-03 21:33 1.98531 -78.76774 26360 ft 481 kts 355°
2026-05-03 21:33 2.01857 -78.77151 26534 ft 481 kts 355°
2026-05-03 21:33 2.05178 -78.77531 26712 ft 480 kts 355°
2026-05-03 21:34 2.08500 -78.77913 26891 ft 480 kts 355°
2026-05-03 21:34 2.11818 -78.78296 27067 ft 480 kts 355°
2026-05-03 21:34 2.15134 -78.78679 27251 ft 479 kts 355°
2026-05-03 21:34 2.18445 -78.79061 27435 ft 479 kts 355°
2026-05-03 21:35 2.21757 -78.79442 27623 ft 479 kts 355°
2026-05-03 21:35 2.25066 -78.79822 27809 ft 479 kts 355°
2026-05-03 21:35 2.28372 -78.80202 27990 ft 479 kts 355°
2026-05-03 21:35 2.31679 -78.80585 28179 ft 478 kts 355°
2026-05-03 21:36 2.34986 -78.80967 28371 ft 478 kts 355°
2026-05-03 21:36 2.38288 -78.81347 28571 ft 478 kts 356°
2026-05-03 21:36 2.41591 -78.81728 28770 ft 477 kts 356°
2026-05-03 21:36 2.44887 -78.82108 28976 ft 477 kts 356°
2026-05-03 21:37 2.48185 -78.82488 29168 ft 477 kts 356°
2026-05-03 21:37 2.51481 -78.82866 29364 ft 476 kts 356°
2026-05-03 21:37 2.54772 -78.83241 29560 ft 476 kts 356°
2026-05-03 21:37 2.58019 -78.83613 29765 ft 476 kts 356°
2026-05-03 21:38 2.61305 -78.83992 29963 ft 476 kts 356°
2026-05-03 21:38 2.64594 -78.84374 30141 ft 475 kts 356°
2026-05-03 21:38 2.67876 -78.84755 30316 ft 475 kts 356°
2026-05-03 21:38 2.71157 -78.85135 30487 ft 474 kts 356°
2026-05-03 21:39 2.74436 -78.85515 30662 ft 474 kts 356°
2026-05-03 21:39 2.77708 -78.85892 30844 ft 474 kts 356°
2026-05-03 21:39 2.80981 -78.86267 31018 ft 473 kts 356°
2026-05-03 21:39 2.84251 -78.86639 31197 ft 473 kts 356°
2026-05-03 21:40 2.87518 -78.87011 31372 ft 473 kts 356°
2026-05-03 21:40 2.90785 -78.87385 31548 ft 472 kts 356°
2026-05-03 21:40 2.94049 -78.87761 31727 ft 472 kts 356°
2026-05-03 21:40 2.97310 -78.88139 31910 ft 472 kts 356°
2026-05-03 21:41 3.00572 -78.88520 32098 ft 471 kts 356°
2026-05-03 21:41 3.03826 -78.88897 32294 ft 471 kts 356°
2026-05-03 21:41 3.07076 -78.89273 32488 ft 470 kts 356°
2026-05-03 21:41 3.10323 -78.89647 32687 ft 470 kts 356°
2026-05-03 21:42 3.13567 -78.90019 32864 ft 469 kts 356°
2026-05-03 21:42 3.16810 -78.90393 33054 ft 469 kts 356°
2026-05-03 21:42 3.20048 -78.90770 33243 ft 468 kts 356°
2026-05-03 21:42 3.23287 -78.91146 33430 ft 468 kts 356°
2026-05-03 21:43 3.26520 -78.91521 33615 ft 468 kts 356°
2026-05-03 21:43 3.29749 -78.91893 33802 ft 467 kts 356°
2026-05-03 21:43 3.36242 -78.92636 33883 ft 472 kts 356°
2026-05-03 21:44 3.42785 -78.93382 33882 ft 474 kts 356°
2026-05-03 21:44 3.49339 -78.94142 33882 ft 474 kts 356°
2026-05-03 21:45 3.55888 -78.94905 33885 ft 474 kts 356°
2026-05-03 21:45 3.62445 -78.95661 33884 ft 474 kts 356°
2026-05-03 21:46 3.68997 -78.96418 33884 ft 474 kts 356°
2026-05-03 21:46 3.75549 -78.97174 33877 ft 474 kts 356°
2026-05-03 21:47 3.82111 -78.97930 33872 ft 475 kts 356°
2026-05-03 21:47 3.88679 -78.98686 33866 ft 475 kts 356°
2026-05-03 21:48 3.95256 -78.99447 33867 ft 476 kts 356°
2026-05-03 21:48 4.01790 -79.00208 33869 ft 476 kts 356°
2026-05-03 21:49 4.08374 -79.00968 33875 ft 476 kts 356°
2026-05-03 21:49 4.14960 -79.01731 33873 ft 476 kts 356°
2026-05-03 21:50 4.21550 -79.02489 33873 ft 477 kts 356°
2026-05-03 21:50 4.28141 -79.03245 33875 ft 477 kts 356°
2026-05-03 21:51 4.34737 -79.04007 33875 ft 477 kts 356°
2026-05-03 21:51 4.41335 -79.04779 33878 ft 477 kts 356°
2026-05-03 21:52 4.47934 -79.05541 33882 ft 478 kts 356°
2026-05-03 21:52 4.54533 -79.06303 33889 ft 477 kts 355°
2026-05-03 21:53 4.61120 -79.07068 33894 ft 476 kts 355°
2026-05-03 21:53 4.67703 -79.07827 33894 ft 476 kts 355°
2026-05-03 21:54 4.74282 -79.08585 33894 ft 476 kts 355°
2026-05-03 21:54 4.80859 -79.09347 33892 ft 476 kts 355°
2026-05-03 21:55 4.87431 -79.10117 33889 ft 475 kts 355°
2026-05-03 21:55 4.93956 -79.10876 33897 ft 475 kts 355°
2026-05-03 21:56 5.00519 -79.11636 33901 ft 475 kts 355°
2026-05-03 21:56 5.07081 -79.12395 33903 ft 475 kts 355°
2026-05-03 21:57 5.13643 -79.13150 33903 ft 474 kts 355°
2026-05-03 21:57 5.20199 -79.13906 33902 ft 474 kts 355°
2026-05-03 21:58 5.26755 -79.14669 33903 ft 474 kts 354°
2026-05-03 21:58 5.33298 -79.15425 33904 ft 473 kts 355°
2026-05-03 21:59 5.39837 -79.16185 33904 ft 473 kts 354°
2026-05-03 21:59 5.46369 -79.16953 33902 ft 473 kts 354°
2026-05-03 22:00 5.52899 -79.17705 33901 ft 472 kts 355°
2026-05-03 22:00 5.59425 -79.18456 33903 ft 472 kts 354°
2026-05-03 22:01 5.65952 -79.19219 33896 ft 472 kts 354°
2026-05-03 22:01 5.72485 -79.19981 33894 ft 473 kts 354°
2026-05-03 22:02 5.79027 -79.20737 33895 ft 473 kts 354°
2026-05-03 22:02 5.85571 -79.21487 33897 ft 474 kts 354°
2026-05-03 22:03 5.92122 -79.22252 33900 ft 474 kts 354°
2026-05-03 22:03 5.98674 -79.23028 33905 ft 474 kts 354°
2026-05-03 22:04 6.05231 -79.23804 33905 ft 475 kts 354°
2026-05-03 22:04 6.11795 -79.24579 33905 ft 475 kts 354°
2026-05-03 22:05 6.18358 -79.25367 33907 ft 475 kts 354°
2026-05-03 22:05 6.24924 -79.26155 33906 ft 475 kts 354°
2026-05-03 22:06 6.31492 -79.26928 33908 ft 475 kts 354°
2026-05-03 22:06 6.38057 -79.27704 33899 ft 475 kts 354°
2026-05-03 22:07 6.44633 -79.28488 33887 ft 476 kts 353°
2026-05-03 22:07 6.51177 -79.29273 33886 ft 477 kts 354°
2026-05-03 22:08 6.57771 -79.30053 33890 ft 477 kts 354°
2026-05-03 22:08 6.64370 -79.30828 33890 ft 477 kts 354°
2026-05-03 22:09 6.70966 -79.31607 33890 ft 477 kts 354°
2026-05-03 22:10 6.80851 -79.32785 33911 ft 476 kts 354°
2026-05-03 22:10 6.87433 -79.33568 33911 ft 476 kts 354°
2026-05-03 22:11 6.94011 -79.34354 33911 ft 476 kts 354°
2026-05-03 22:11 7.00583 -79.35142 33910 ft 475 kts 354°
2026-05-03 22:12 7.07147 -79.35925 33910 ft 475 kts 354°
2026-05-03 22:12 7.13706 -79.36705 33908 ft 475 kts 354°
2026-05-03 22:13 7.19161 -79.37353 33904 ft 475 kts 354°
2026-05-03 22:13 7.25718 -79.38135 33903 ft 475 kts 354°
2026-05-03 22:14 7.32277 -79.38915 33901 ft 474 kts 354°
2026-05-03 22:14 7.38835 -79.39691 33899 ft 474 kts 354°
2026-05-03 22:15 7.45389 -79.40463 33902 ft 474 kts 354°
2026-05-03 22:15 7.51932 -79.41226 33904 ft 473 kts 354°
2026-05-03 22:16 7.58458 -79.41993 33913 ft 472 kts 353°
2026-05-03 22:16 7.64973 -79.42758 33910 ft 471 kts 354°
2026-05-03 22:17 7.71481 -79.43523 33913 ft 471 kts 354°
2026-05-03 22:17 7.77985 -79.44294 33907 ft 470 kts 354°
2026-05-03 22:18 7.84486 -79.45065 33906 ft 470 kts 354°
2026-05-03 22:18 7.90983 -79.45830 33910 ft 470 kts 354°
2026-05-03 22:19 7.97472 -79.46596 33914 ft 469 kts 354°
2026-05-03 22:19 8.03957 -79.47368 33910 ft 469 kts 354°
2026-05-03 22:20 8.10393 -79.48122 33905 ft 469 kts 354°
2026-05-03 22:20 8.16870 -79.48872 33903 ft 469 kts 354°
2026-05-03 22:21 8.23347 -79.49635 33900 ft 469 kts 354°
2026-05-03 22:21 8.29831 -79.50411 33891 ft 469 kts 354°
2026-05-03 22:22 8.36320 -79.51179 33886 ft 470 kts 354°
2026-05-03 22:22 8.42814 -79.51944 33885 ft 470 kts 354°
2026-05-03 22:23 8.49309 -79.52714 33885 ft 470 kts 354°
2026-05-03 22:23 8.55811 -79.53480 33887 ft 470 kts 354°
2026-05-03 22:24 8.62313 -79.54248 33887 ft 471 kts 354°
2026-05-03 22:24 8.68821 -79.55021 33888 ft 471 kts 354°
2026-05-03 22:25 8.75334 -79.55797 33890 ft 471 kts 354°
2026-05-03 22:25 8.81864 -79.56105 33890 ft 470 kts
2026-05-03 22:26 8.88408 -79.55866 33890 ft 471 kts
2026-05-03 22:26 8.94953 -79.55627 33887 ft 471 kts
2026-05-03 22:27 9.01502 -79.55396 33888 ft 471 kts
2026-05-03 22:27 9.08052 -79.55169 33890 ft 471 kts
2026-05-03 22:28 9.14604 -79.54942 33909 ft 471 kts
2026-05-03 22:28 9.21154 -79.54711 33910 ft 471 kts
2026-05-03 22:29 9.27664 -79.54479 33913 ft 471 kts
2026-05-03 22:29 9.34217 -79.54242 33914 ft 471 kts
2026-05-03 22:30 9.40770 -79.54012 33914 ft 471 kts
2026-05-03 22:30 9.47320 -79.53786 33915 ft 471 kts
2026-05-03 22:31 9.53872 -79.53549 33912 ft 471 kts
2026-05-03 22:31 9.60422 -79.53319 33911 ft 471 kts
2026-05-03 22:32 9.66974 -79.53087 33913 ft 471 kts
2026-05-03 22:32 9.73521 -79.52854 33907 ft 471 kts
2026-05-03 22:33 9.80067 -79.52628 33909 ft 471 kts
2026-05-03 22:33 9.86606 -79.52401 33901 ft 470 kts
2026-05-03 22:34 9.93144 -79.52167 33900 ft 470 kts
2026-05-03 22:34 9.99680 -79.51933 33901 ft 470 kts
2026-05-03 22:35 10.06216 -79.51702 33903 ft 470 kts
2026-05-03 22:35 10.12752 -79.51472 33900 ft 470 kts
2026-05-03 22:36 10.19288 -79.51243 33901 ft 470 kts
2026-05-03 22:36 10.25823 -79.51018 33900 ft 470 kts
2026-05-03 22:37 10.32357 -79.50784 33897 ft 470 kts
2026-05-03 22:37 10.38893 -79.50543 33896 ft 470 kts
2026-05-03 22:38 10.45424 -79.50308 33904 ft 469 kts
2026-05-03 22:38 10.51943 -79.50076 33907 ft 469 kts
2026-05-03 22:39 10.58456 -79.49841 33906 ft 468 kts
2026-05-03 22:39 10.64918 -79.49597 33903 ft 468 kts
2026-05-03 22:40 10.71423 -79.49351 33904 ft 468 kts
2026-05-03 22:40 10.77926 -79.49109 33901 ft 468 kts
2026-05-03 22:41 10.84425 -79.48865 33897 ft 467 kts
2026-05-03 22:41 10.90925 -79.48618 33897 ft 467 kts
2026-05-03 22:42 10.97423 -79.48362 33898 ft 467 kts
2026-05-03 22:42 11.03924 -79.48119 33898 ft 467 kts
2026-05-03 22:43 11.10421 -79.47879 33895 ft 467 kts
2026-05-03 22:43 11.16922 -79.47629 33885 ft 468 kts
2026-05-03 22:44 11.23432 -79.47374 33883 ft 469 kts
2026-05-03 22:44 11.29954 -79.47124 33883 ft 469 kts
2026-05-03 22:45 11.36481 -79.46879 33887 ft 470 kts
2026-05-03 22:45 11.43014 -79.46630 33889 ft 470 kts
2026-05-03 22:46 11.49553 -79.46387 33889 ft 470 kts
2026-05-03 22:46 11.56094 -79.46136 33887 ft 471 kts
2026-05-03 22:47 11.62646 -79.45881 33891 ft 471 kts
2026-05-03 22:47 11.69202 -79.45628 33892 ft 472 kts
2026-05-03 22:48 11.75764 -79.45383 33893 ft 472 kts
2026-05-03 22:48 11.82329 -79.45135 33894 ft 472 kts
2026-05-03 22:49 11.88897 -79.44877 33898 ft 472 kts
2026-05-03 22:49 11.95466 -79.44616 33895 ft 472 kts
2026-05-03 22:50 12.02032 -79.44366 33895 ft 472 kts
2026-05-03 22:50 12.08600 -79.44123 33887 ft 472 kts
2026-05-03 22:51 12.15167 -79.43868 33893 ft 472 kts
2026-05-03 22:51 12.21692 -79.43620 33896 ft 472 kts 360°
2026-05-03 22:52 12.28257 -79.43377 33904 ft 472 kts
2026-05-03 22:52 12.34821 -79.43125 33908 ft 472 kts 360°
2026-05-03 22:53 12.41382 -79.42864 33911 ft 472 kts
2026-05-03 22:53 12.47941 -79.42615 33907 ft 472 kts
2026-05-03 22:54 12.54497 -79.42370 33907 ft 471 kts
2026-05-03 22:54 12.61042 -79.42116 33921 ft 470 kts 359°
2026-05-03 22:55 12.67580 -79.41860 33924 ft 470 kts
2026-05-03 22:55 12.74108 -79.41601 33926 ft 469 kts
2026-05-03 22:56 12.80631 -79.41353 33925 ft 469 kts 359°
2026-05-03 22:56 12.87155 -79.41111 33926 ft 469 kts 360°
2026-05-03 22:57 12.93675 -79.40858 33921 ft 469 kts 359°
2026-05-03 22:57 13.00198 -79.40596 33923 ft 469 kts
2026-05-03 22:58 13.06679 -79.40351 33921 ft 469 kts 359°
2026-05-03 22:58 13.13205 -79.40109 33926 ft 469 kts 360°
2026-05-03 22:59 13.19731 -79.39855 33928 ft 469 kts
2026-05-03 22:59 13.26260 -79.39603 33931 ft 469 kts
2026-05-03 23:00 13.32795 -79.39345 33922 ft 470 kts 360°
2026-05-03 23:00 13.38276 -79.39128 33921 ft 471 kts
2026-05-03 23:01 13.44825 -79.38876 33924 ft 471 kts
2026-05-03 23:01 13.51376 -79.38627 33924 ft 471 kts 360°
2026-05-03 23:02 13.57934 -79.38377 33932 ft 472 kts
2026-05-03 23:02 13.64494 -79.38126 33937 ft 472 kts 360°
2026-05-03 23:03 13.71053 -79.37865 33936 ft 472 kts
2026-05-03 23:03 13.77570 -79.37605 33938 ft 472 kts
2026-05-03 23:04 13.84127 -79.37348 33944 ft 472 kts 360°
2026-05-03 23:04 13.90685 -79.37094 33944 ft 472 kts 360°
2026-05-03 23:05 13.97244 -79.36847 33942 ft 472 kts 360°
2026-05-03 23:05 14.03805 -79.36595 33944 ft 472 kts 360°
2026-05-03 23:06 14.10371 -79.36342 33942 ft 472 kts 360°
2026-05-03 23:06 14.16940 -79.36079 33941 ft 472 kts 360°
2026-05-03 23:07 14.23513 -79.35824 33945 ft 473 kts 360°
2026-05-03 23:07 14.30085 -79.35567 33945 ft 473 kts 360°
2026-05-03 23:08 14.36658 -79.35310 33944 ft 473 kts 360°
2026-05-03 23:08 14.43233 -79.35056 33953 ft 473 kts 360°
2026-05-03 23:09 14.49808 -79.34802 33954 ft 473 kts 360°
2026-05-03 23:09 14.56383 -79.34553 33954 ft 473 kts 360°
2026-05-03 23:10 14.62959 -79.34293 33955 ft 473 kts 360°
2026-05-03 23:10 14.69537 -79.34032 33959 ft 473 kts 360°
2026-05-03 23:11 14.76077 -79.33783 33951 ft 474 kts 360°
2026-05-03 23:11 14.82666 -79.33526 33956 ft 474 kts 360°
2026-05-03 23:12 14.89259 -79.33256 33954 ft 474 kts 360°
2026-05-03 23:12 14.95854 -79.32990 33955 ft 474 kts 360°
2026-05-03 23:13 15.02449 -79.32740 33962 ft 474 kts 359°
2026-05-03 23:13 15.09050 -79.32518 33962 ft 475 kts 359°
2026-05-03 23:14 15.15655 -79.32310 33961 ft 475 kts 359°
2026-05-03 23:14 15.22262 -79.32099 33962 ft 475 kts 359°
2026-05-03 23:15 15.28873 -79.31877 33965 ft 475 kts 359°
2026-05-03 23:15 15.35442 -79.31661 33968 ft 475 kts 359°
2026-05-03 23:16 15.42056 -79.31443 33971 ft 476 kts 359°
2026-05-03 23:16 15.48679 -79.31217 33968 ft 476 kts 359°
2026-05-03 23:17 15.55300 -79.30993 33970 ft 476 kts 359°
2026-05-03 23:17 15.61929 -79.30776 33970 ft 477 kts 359°
2026-05-03 23:18 15.68556 -79.30555 33977 ft 477 kts 359°
2026-05-03 23:18 15.75191 -79.30333 33977 ft 477 kts 359°
2026-05-03 23:19 15.81823 -79.30112 33977 ft 477 kts 359°
2026-05-03 23:19 15.88454 -79.29891 33977 ft 477 kts 359°
2026-05-03 23:20 15.95084 -79.29672 33979 ft 476 kts 359°
2026-05-03 23:20 16.01713 -79.29452 33978 ft 476 kts 359°
2026-05-03 23:21 16.08336 -79.29232 33984 ft 476 kts 359°
2026-05-03 23:21 16.14955 -79.29010 33991 ft 476 kts 359°
2026-05-03 23:22 16.24830 -79.28680 33993 ft 475 kts 359°
2026-05-03 23:22 16.31439 -79.28459 33993 ft 475 kts 359°
2026-05-03 23:23 16.38049 -79.28232 33998 ft 475 kts 359°
2026-05-03 23:23 16.44660 -79.28005 34011 ft 475 kts 359°
2026-05-03 23:24 16.51248 -79.27789 34013 ft 473 kts 359°
2026-05-03 23:24 16.57814 -79.27571 34010 ft 471 kts 359°
2026-05-03 23:25 16.64367 -79.27350 34010 ft 471 kts 359°
2026-05-03 23:25 16.70910 -79.27128 34008 ft 470 kts 359°
2026-05-03 23:26 16.77454 -79.26908 34012 ft 470 kts 359°
2026-05-03 23:26 16.83994 -79.26691 34010 ft 470 kts 359°
2026-05-03 23:27 16.90530 -79.26470 34013 ft 470 kts 359°
2026-05-03 23:27 16.97060 -79.26248 34010 ft 469 kts 359°
2026-05-03 23:28 17.03583 -79.26030 34001 ft 469 kts 359°
2026-05-03 23:28 17.10103 -79.25806 34003 ft 469 kts 359°
2026-05-03 23:29 17.16620 -79.25586 34016 ft 468 kts 359°
2026-05-03 23:29 17.23131 -79.25362 34014 ft 468 kts 359°
2026-05-03 23:30 17.29633 -79.25145 34009 ft 467 kts 359°
2026-05-03 23:30 17.36125 -79.24926 34013 ft 467 kts 359°
2026-05-03 23:31 17.42575 -79.24708 34012 ft 467 kts 359°
2026-05-03 23:31 17.49073 -79.24488 34014 ft 467 kts 359°
2026-05-03 23:32 17.55577 -79.24269 34008 ft 468 kts 359°
2026-05-03 23:32 17.62079 -79.24043 34001 ft 468 kts 359°
2026-05-03 23:33 17.68582 -79.23822 34009 ft 468 kts 359°
2026-05-03 23:33 17.75089 -79.23602 34011 ft 467 kts 359°
2026-05-03 23:34 17.81590 -79.23380 34009 ft 467 kts 359°
2026-05-03 23:34 17.88089 -79.23151 34009 ft 467 kts 359°
2026-05-03 23:35 17.94587 -79.22927 34008 ft 467 kts 359°
2026-05-03 23:35 18.01085 -79.22704 34007 ft 467 kts 359°
2026-05-03 23:36 18.07581 -79.22488 34002 ft 467 kts 359°
2026-05-03 23:36 18.14078 -79.22268 34010 ft 467 kts 359°
2026-05-03 23:37 18.20588 -79.22049 33994 ft 468 kts 359°
2026-05-03 23:37 18.27107 -79.21827 34001 ft 469 kts 359°
2026-05-03 23:38 18.33635 -79.21597 34000 ft 470 kts 359°
2026-05-03 23:38 18.40170 -79.21371 34002 ft 470 kts 359°
2026-05-03 23:39 18.46710 -79.21149 34009 ft 470 kts 359°
2026-05-03 23:39 18.53256 -79.20928 34011 ft 471 kts 359°
2026-05-03 23:40 18.59811 -79.20698 34011 ft 472 kts 359°
2026-05-03 23:40 18.66326 -79.20476 34014 ft 472 kts 359°
2026-05-03 23:41 18.72893 -79.20260 34024 ft 472 kts 359°
2026-05-03 23:41 18.79463 -79.20028 34027 ft 472 kts 359°
2026-05-03 23:42 18.86033 -79.19797 34039 ft 472 kts 359°
2026-05-03 23:42 18.92602 -79.19578 34038 ft 472 kts 359°
2026-05-03 23:43 18.99165 -79.19353 34034 ft 472 kts 359°
2026-05-03 23:43 19.05727 -79.19117 34031 ft 472 kts 359°
2026-05-03 23:44 19.12284 -79.18885 34030 ft 472 kts 359°
2026-05-03 23:44 19.18846 -79.18667 34041 ft 472 kts 359°
2026-05-03 23:45 19.25405 -79.18445 34041 ft 471 kts 359°
2026-05-03 23:45 19.31955 -79.18211 34040 ft 471 kts 359°
2026-05-03 23:46 19.38510 -79.17978 34041 ft 471 kts 359°
2026-05-03 23:46 19.45057 -79.17753 34040 ft 471 kts 359°
2026-05-03 23:47 19.51601 -79.17524 34043 ft 470 kts 359°
2026-05-03 23:47 19.58143 -79.17296 34041 ft 470 kts 359°
2026-05-03 23:48 19.64685 -79.17070 34042 ft 470 kts 359°
2026-05-03 23:48 19.71224 -79.16846 34043 ft 470 kts 359°
2026-05-03 23:49 19.76660 -79.16662 34037 ft 470 kts 359°
2026-05-03 23:49 19.83203 -79.16426 34049 ft 470 kts 358°
2026-05-03 23:50 19.89744 -79.16188 34045 ft 471 kts 358°
2026-05-03 23:50 19.96291 -79.15954 34041 ft 471 kts 358°
2026-05-03 23:51 20.02839 -79.15741 34031 ft 471 kts 358°
2026-05-03 23:51 20.09390 -79.15604 34035 ft 471 kts 357°
2026-05-03 23:52 20.15936 -79.15488 34045 ft 471 kts 357°
2026-05-03 23:52 20.22486 -79.15354 34033 ft 471 kts 357°
2026-05-03 23:53 20.29035 -79.15201 34035 ft 471 kts 357°
2026-05-03 23:53 20.35584 -79.15047 34027 ft 471 kts 357°
2026-05-03 23:54 20.42130 -79.14905 34032 ft 471 kts 357°
2026-05-03 23:54 20.48639 -79.14773 34047 ft 471 kts 356°
2026-05-03 23:55 20.55194 -79.14626 34046 ft 471 kts 356°
2026-05-03 23:55 20.61754 -79.14477 34040 ft 471 kts 356°
2026-05-03 23:56 20.68313 -79.14327 34035 ft 472 kts 356°
2026-05-03 23:56 20.74878 -79.14185 34039 ft 472 kts 356°
2026-05-03 23:57 20.81445 -79.14039 34058 ft 472 kts 356°
2026-05-03 23:57 20.88014 -79.13891 34053 ft 472 kts 356°
2026-05-03 23:58 20.94580 -79.13743 34050 ft 472 kts 356°
2026-05-03 23:58 21.01149 -79.13590 34048 ft 472 kts 356°
2026-05-03 23:59 21.07712 -79.13441 34047 ft 472 kts 356°
2026-05-03 23:59 21.14272 -79.13291 34043 ft 471 kts 356°
2026-05-04 00:00 21.20829 -79.13146 34045 ft 471 kts 356°
2026-05-04 00:00 21.27387 -79.13002 34044 ft 471 kts 356°
2026-05-04 00:01 21.33942 -79.12852 34044 ft 471 kts 356°
2026-05-04 00:01 21.40448 -79.12698 34042 ft 471 kts 356°
2026-05-04 00:02 21.47001 -79.12551 34054 ft 471 kts 356°
2026-05-04 00:02 21.53554 -79.12406 34038 ft 471 kts 356°
2026-05-04 00:03 21.60111 -79.12261 34034 ft 471 kts 356°
2026-05-04 00:03 21.66671 -79.12065 34027 ft 474 kts
2026-05-04 00:04 21.73127 -79.10305 34030 ft 487 kts 20°
2026-05-04 00:04 21.79264 -79.07162 34043 ft 489 kts 21°
2026-05-04 00:05 21.85419 -79.04005 34022 ft 491 kts 21°
2026-05-04 00:05 21.91589 -79.00846 34026 ft 492 kts 21°
2026-05-04 00:06 21.97773 -78.97674 34020 ft 493 kts 21°
2026-05-04 00:06 22.03960 -78.94490 34024 ft 493 kts 21°
2026-05-04 00:07 22.10157 -78.91294 34051 ft 494 kts 21°
2026-05-04 00:07 22.16365 -78.88089 34035 ft 495 kts 21°
2026-05-04 00:08 22.22585 -78.84883 34032 ft 496 kts 21°
2026-05-04 00:08 22.28811 -78.81670 34030 ft 496 kts 21°
2026-05-04 00:09 22.35041 -78.78451 34035 ft 496 kts 21°
2026-05-04 00:09 22.41271 -78.75227 34045 ft 497 kts 21°
2026-05-04 00:10 22.47512 -78.71998 34029 ft 498 kts 21°
2026-05-04 00:10 22.53762 -78.68757 34029 ft 498 kts 21°
2026-05-04 00:11 22.60016 -78.65504 34022 ft 499 kts 21°
2026-05-04 00:11 22.66275 -78.62255 34025 ft 499 kts 21°
2026-05-04 00:12 22.72555 -78.59052 34033 ft 497 kts 16°
2026-05-04 00:12 22.79171 -78.57404 34019 ft 483 kts 357°
2026-05-04 00:13 22.85747 -78.57914 34015 ft 470 kts 343°
2026-05-04 00:13 22.92200 -78.59140 34015 ft 471 kts 343°
2026-05-04 00:14 22.98623 -78.60349 34012 ft 472 kts 343°
2026-05-04 00:14 23.05098 -78.61564 34038 ft 472 kts 343°
2026-05-04 00:15 23.11577 -78.62779 34032 ft 473 kts 343°
2026-05-04 00:15 23.18059 -78.64003 34032 ft 473 kts 343°
2026-05-04 00:16 23.24540 -78.65230 34036 ft 473 kts 343°
2026-05-04 00:16 23.31022 -78.66453 34037 ft 473 kts 343°
2026-05-04 00:17 23.37504 -78.67677 34066 ft 472 kts 344°
2026-05-04 00:17 23.43973 -78.68905 34061 ft 471 kts 344°
2026-05-04 00:18 23.50435 -78.70136 34051 ft 471 kts 344°
2026-05-04 00:18 23.56882 -78.71363 34046 ft 470 kts 344°
2026-05-04 00:19 23.63329 -78.72579 34044 ft 470 kts 344°
2026-05-04 00:19 23.69777 -78.73805 34048 ft 470 kts 344°
2026-05-04 00:20 23.76231 -78.75034 34036 ft 471 kts 344°
2026-05-04 00:20 23.82692 -78.76275 34036 ft 471 kts 344°
2026-05-04 00:21 23.89154 -78.77518 34035 ft 472 kts 344°
2026-05-04 00:21 23.95624 -78.78749 34036 ft 472 kts 344°
2026-05-04 00:22 24.01788 -78.80845 34038 ft 458 kts 327°
2026-05-04 00:22 24.07198 -78.84340 34028 ft 455 kts 322°
2026-05-04 00:23 24.12615 -78.87925 34026 ft 455 kts 323°
2026-05-04 00:23 24.18044 -78.91508 34025 ft 455 kts 323°
2026-05-04 00:24 24.23467 -78.95105 34019 ft 456 kts 323°
2026-05-04 00:24 24.28891 -78.98699 34020 ft 456 kts 323°
2026-05-04 00:25 24.34320 -79.02292 34024 ft 456 kts 323°
2026-05-04 00:25 24.39745 -79.05892 34034 ft 456 kts 322°
2026-05-04 00:26 24.45167 -79.09501 34029 ft 456 kts 322°
2026-05-04 00:26 24.50592 -79.13119 34026 ft 456 kts 322°
2026-05-04 00:27 24.56024 -79.16739 34029 ft 457 kts 322°
2026-05-04 00:27 24.61458 -79.20361 34032 ft 457 kts 322°
2026-05-04 00:28 24.66889 -79.23985 34052 ft 456 kts 322°
2026-05-04 00:28 24.72311 -79.27610 34047 ft 456 kts 322°
2026-05-04 00:29 24.77711 -79.31220 34056 ft 453 kts 322°
2026-05-04 00:29 24.83085 -79.34827 34055 ft 452 kts 322°
2026-05-04 00:30 24.88444 -79.38422 34051 ft 450 kts 322°
2026-05-04 00:30 24.93790 -79.42012 34048 ft 450 kts 322°
2026-05-04 00:31 24.99130 -79.45597 34070 ft 449 kts 321°
2026-05-04 00:31 25.04425 -79.49156 34061 ft 448 kts 321°
2026-05-04 00:32 25.09738 -79.52746 34056 ft 448 kts 321°
2026-05-04 00:32 25.15051 -79.56331 34049 ft 448 kts 321°
2026-05-04 00:33 25.23024 -79.61711 34051 ft 448 kts 321°
2026-05-04 00:34 25.28333 -79.65299 34088 ft 447 kts 320°
2026-05-04 00:34 25.33635 -79.68876 34052 ft 446 kts 320°
2026-05-04 00:35 25.38744 -79.72660 34048 ft 431 kts 307°
2026-05-04 00:35 25.40630 -79.75153 34044 ft 419 kts 297°
2026-05-04 00:35 25.42314 -79.77779 34039 ft 419 kts 297°
2026-05-04 00:36 25.45685 -79.83042 34044 ft 419 kts 298°
2026-05-04 00:36 25.49049 -79.88294 34035 ft 420 kts 298°
2026-05-04 00:37 25.52432 -79.93561 34029 ft 420 kts 298°
2026-05-04 00:37 25.55259 -79.97980 34030 ft 420 kts 298°
2026-05-04 00:38 25.58632 -80.03264 34026 ft 420 kts 298°
2026-05-04 00:38 25.61977 -80.08515 34056 ft 420 kts 298°
2026-05-04 00:39 25.65314 -80.13836 34027 ft 418 kts 294°
2026-05-04 00:39 25.67959 -80.19522 34027 ft 414 kts 289°
2026-05-04 00:40 25.69965 -80.24386 34023 ft 414 kts 288°
2026-05-04 00:40 25.71120 -80.28342 34022 ft 402 kts 270°
2026-05-04 00:40 25.71097 -80.31417 34022 ft 399 kts 265°